Yakima, WA
on Wednesday, February 20, 2013

Wednesday
Previous Day Next Day
Daily Summary
 ActualAverageRecord
Temperature
Mean Temperature °F 37°F  
Max Temperature 49°F 48°F 63°F (1982)
Min Temperature 20°F 26°F 8°F (1986)
Degree Days
Heating Degree Days 30 28  
Month to date heating degree days 496 594  
Since 1 July heating degree days 3765 4312  
Cooling Degree Days 0 0  
Month to date cooling degree days 0 0  
Year to date cooling degree days 0 0  
Moisture
Dew Point 22°F   
Average Humidity 62    
Maximum Humidity 84    
Minimum Humidity 39    
Precipitation
Precipitation 0.00 in 0.03 in 0.72 in (1982)
Month to date precipitation T 0.57  
Year to date precipitation 0.10 1.71  
Snow
Snow 0.00 in 0.10 in 4.60 in (1948)
Month to date snowfall 0.0 2.0  
Year to date snowfall 1.1 7.3  
Since 1 July snowfall 15.3 20.3  
Snow Depth 0.00 in   
Wind
Wind Speed 2 mph   
Max Wind Speed 15 mph   
Max Gust Speed 20 mph   
Visibility 10 miles   
Events     

Key: T is trace of precipitation, MM is missing value
Source: NWS Daily Summary
Time(PST)TemperatureDew PointHumidity Pressure Visibility Wind DirectionWind SpeedGust SpeedPrecipitationEvents Conditions
12:53 AM 26.1°F 21.0°F 81% 29.98 in 8.0 miles WNW 4.6 mph - N/A   Clear
1:53 AM 25.0°F 19.9°F 81% 29.99 in 9.0 miles Calm Calm - N/A   Clear
2:53 AM 21.9°F 18.0°F 85% 30.00 in 10.0 miles Calm Calm - N/A   Clear
3:53 AM 21.2°F 17.6°F 86% 29.97 in 10.0 miles West 4.6 mph - N/A   Clear
4:53 AM 21.0°F 16.0°F 81% 30.02 in 10.0 miles WNW 3.5 mph - N/A   Clear
5:53 AM 21.9°F 17.1°F 82% 30.04 in 10.0 miles NNW 4.6 mph - N/A   Clear
6:53 AM 21.0°F 16.0°F 81% 30.05 in 10.0 miles Calm Calm - N/A   Clear
7:53 AM 26.1°F 19.0°F 75% 30.05 in 10.0 miles Calm Calm - N/A   Clear
8:53 AM 30.9°F 24.1°F 76% 30.05 in 10.0 miles Calm Calm - N/A   Clear
9:53 AM 37.9°F 25.0°F 60% 30.04 in 10.0 miles Calm Calm - N/A   Clear
10:53 AM 43.0°F 25.0°F 49% 30.03 in 10.0 miles Calm Calm - N/A   Clear
11:53 AM 46.0°F 26.1°F 46% 30.01 in - Calm Calm - N/A   Clear
12:53 PM 46.0°F 26.1°F 46% 29.99 in 10.0 miles SSE 3.5 mph - N/A   Clear
1:53 PM 46.9°F 25.0°F 42% 29.98 in 10.0 miles Calm Calm - N/A   Partly Cloudy
2:53 PM 48.0°F 25.0°F 41% 29.96 in 10.0 miles SE 4.6 mph - N/A   Scattered Clouds
3:53 PM 46.9°F 27.0°F 46% 29.96 in 10.0 miles Calm Calm - N/A   Clear
4:53 PM 46.9°F 25.0°F 42% 29.98 in 10.0 miles Calm Calm - N/A   Scattered Clouds
5:53 PM 43.0°F 26.1°F 51% 29.99 in 10.0 miles Calm Calm - N/A   Overcast
6:53 PM 39.9°F 27.0°F 60% 30.01 in 10.0 miles West 3.5 mph - N/A   Overcast
7:53 PM 37.0°F 24.1°F 59% 30.01 in 10.0 miles West 4.6 mph - N/A   Scattered Clouds
8:53 PM 32.0°F 23.0°F 69% 30.02 in 10.0 miles WSW 3.5 mph - N/A   Clear
9:53 PM 30.0°F 21.9°F 72% 30.02 in 10.0 miles West 3.5 mph - N/A   Partly Cloudy
10:53 PM 28.9°F 21.9°F 75% 30.02 in 10.0 miles Calm Calm - N/A   Partly Cloudy
11:53 PM 26.1°F 21.0°F 81% 30.02 in 9.0 miles Variable 3.5 mph - N/A   Clear
Moon Phase
Feb. 20 Feb. 25 Mar. 04 Mar. 11 Mar. 19
Sunrise:06:56 AM (PST) Moon Rise:12:50 PM (PST)2/20
Sunset:05:35 PM (PST) Moon Set:03:32 AM (PST)2/20

Copyright © 2014 The Weather Underground, Inc.